Location: B�rgermoos
(47.6500°N, 9.0667°E)
Time: 06:21:42
(UTC+00:00)

Vanguard 3 - Pass Details

Date: 10 August 2021
Orbit: 510 x 3260 km, 33.3° (Epoch: 16 September)

Event Time Altitude Azimuth Distance (km) Brightness Sun altitude
Rises 20:04:07 0° 271° (W) 5,882 12.4 -12.2°
Reaches altitude 10° 20:08:16 10° 261° (W) 5,227 11.8 -12.8°
Maximum altitude 20:21:22 30° 209° (SSW) 4,498 10.8 -14.4°
Enters shadow 20:35:24 13° 161° (SSE) 5,934 11.0 -16.1°
